Location: Dodgeville, WI 53533, USA
(43.0344°N, 90.0900°W)
Time: 05:20:50
(UTC-05:00)

OTV 5 (USA 277) - Visible Passes

Search period start: 21 August 2018 00:00
Search period end: 31 August 2018 00:00
Orbit: 316 x 334 km, 54.5° (Epoch: 20 August)

Date Brightness Start Highest point End Pass type
(mag) Time Alt. Az. Time Alt. Az. Time Alt. Az.
21 Aug ? 20:55:25 10° W 20:57:58 31° NNW 21:00:29 10° NE visible
22 Aug ? 21:13:35 10° WNW 21:15:29 17° NNW 21:17:23 10° NNE visible
23 Aug ? 21:32:20 10° NNW 21:33:09 11° NNW 21:33:58 10° N visible
25 Aug ? 20:31:52 10° NW 20:33:09 12° NNW 20:34:27 10° N visible
29 Aug ? 21:42:52 10° N 21:44:03 12° NNE 21:44:03 12° NNE visible
30 Aug ? 21:59:38 10° NNW 22:00:32 15° N 22:00:32 15° N visible
